Location: Glencliff
(36.1226°N, 86.7183°W)
Time: 12:34:44
(UTC+00:00)

Cosmos 2233 Rocket - Pass Details

Date: 25 August 2019
Orbit: 952 x 992 km, 82.9° (Epoch: 19 September)

Event Time Altitude Azimuth Distance (km) Brightness Sun altitude
Rises 08:47:11 0° 351° (N) 3,639 7.4 -27.1°
Reaches altitude 10° 08:49:41 10° 351° (N) 2,687 6.6 -26.7°
Maximum altitude 08:55:49 78° 266° (W) 977 3.8 -25.7°
Enters shadow 08:57:11 56° 195° (SSW) 1,125 4.0 -25.5°
